Date String (YYYY-MM-DD hh:mm:ss) UTC,Instrument flags,absolute air pressure of the measurement (hPa),sample flow rate (lpm),inlet stack bypass flow (lpm),air temperature of the measurement (°C),ambient temperature measured by the external sensor (°C),aerosol sample conditioner tube jacket temperature (°C),OPC LED temperature (°C),internal box temperature (°C),relative humidity of the measurement (%),span deviation,mass concentration of particles derived from Lorenz-Mie calculation of OPC scattering (μg/m³),mass concentration of particles derived from Lorenz-Mie calculation of OPC scattering (μg/m³),mass concentration of particles derived from Lorenz-Mie calculation of OPC scattering (μg/m³)
DateTimeUTC,F1_M11,P_M11,Q1_M11,Q2_M11,T1_M11,T2_M11,T3_M11,T4_M11,T5_M11,U1_M11,ZSPAN_M11,X0_M11,X2_M11,X1_M11
2024-06-18 00:00:00,SystemResetWarning,0813.6,5.00,000.00,028.9,028.3,000.0,037.1,030.9,034.9,0000.0,0032.00,0008.46,0006.42
2024-06-18 00:01:00,SystemResetWarning,0813.6,5.00,000.00,029.0,028.6,000.0,037.2,031.0,034.5,0000.0,0033.38,0008.49,0006.42
2024-06-18 00:02:00,SystemResetWarning,0813.6,5.00,000.00,029.1,028.8,000.0,037.2,031.1,033.9,0000.0,0034.00,0008.50,0006.41
2024-06-18 00:03:00,SystemResetWarning,0813.6,4.99,000.00,029.2,028.2,000.0,037.3,030.7,034.0,0000.0,0032.23,0008.45,0006.39
2024-06-18 00:04:00,SystemResetWarning,0813.5,5.01,000.00,028.9,026.2,000.0,037.3,029.8,034.5,0000.0,0033.18,0008.45,0006.37
2024-06-18 00:05:00,SystemResetWarning,0813.5,5.02,000.00,028.6,025.5,000.0,037.3,029.5,035.5,0002.3,0031.42,0008.44,0006.36
2024-06-18 00:06:00,SystemResetWarning,0813.6,5.00,000.00,028.5,026.0,000.0,037.2,029.6,035.4,0002.4,0031.51,0008.41,0006.33
2024-06-18 00:07:00,SystemResetWarning,0813.5,5.00,000.00,028.5,026.4,000.0,037.2,029.9,035.5,0001.7,0030.78,0008.34,0006.30
2024-06-18 00:08:00,SystemResetWarning,0813.5,5.01,000.00,028.6,026.9,000.0,037.1,030.1,034.8,0001.8,0031.00,0008.33,0006.28
2024-06-18 00:09:00,SystemResetWarning,0813.6,5.00,000.00,028.6,027.4,000.0,037.1,030.4,035.2,0002.0,0030.52,0008.25,0006.26
2024-06-18 00:10:00,SystemResetWarning,0813.6,5.00,000.00,028.8,027.7,000.0,037.1,030.6,034.8,0001.5,0030.62,0008.24,0006.25
2024-06-18 00:11:00,SystemResetWarning,0813.6,5.00,000.00,028.8,028.1,000.0,037.1,030.7,034.5,0000.0,0029.99,0008.28,0006.25
2024-06-18 00:12:00,SystemResetWarning,0813.6,5.00,000.00,028.9,028.3,000.0,037.1,030.9,034.0,0000.0,0030.84,0008.32,0006.24
2024-06-18 00:13:00,SystemResetWarning,0813.6,4.99,000.00,029.1,028.6,000.0,037.2,031.0,033.8,0000.0,0030.15,0008.29,0006.22
2024-06-18 00:14:00,SystemResetWarning,0813.6,4.99,000.00,029.1,028.8,000.0,037.2,031.1,033.9,0000.0,0030.69,0008.36,0006.22
2024-06-18 00:15:00,SystemResetWarning,0813.6,4.99,000.00,029.1,027.5,000.0,037.3,030.4,033.9,0000.3,0030.52,0008.44,0006.22
2024-06-18 00:16:00,SystemResetWarning,0813.5,5.00,000.00,028.7,025.7,000.0,037.3,029.6,034.4,0000.0,0031.22,0008.45,0006.24
2024-06-18 00:17:00,SystemResetWarning,0813.5,5.02,000.00,028.5,025.5,000.0,037.3,029.4,034.9,0000.0,0029.88,0008.44,0006.23
2024-06-18 00:18:00,SystemResetWarning,0813.5,5.01,000.00,028.5,026.0,000.0,037.2,029.7,035.3,0000.1,0027.94,0008.46,0006.22
2024-06-18 00:19:00,SystemResetWarning,0813.5,4.99,000.00,028.5,026.5,000.0,037.1,029.9,035.3,0000.0,0027.45,0008.49,0006.22
2024-06-18 00:20:00,SystemResetWarning,0813.5,5.00,000.00,028.6,027.0,000.0,037.0,030.2,035.5,0000.0,0027.43,0008.44,0006.21
2024-06-18 00:21:00,SystemResetWarning,0813.6,5.01,000.00,028.6,027.4,000.0,037.0,030.4,035.0,0000.0,0027.39,0008.33,0006.21
2024-06-18 00:22:00,SystemResetWarning,0813.5,4.99,000.00,028.7,027.8,000.0,037.0,030.6,034.7,0000.2,0027.32,0008.27,0006.21
2024-06-18 00:23:00,SystemResetWarning,0813.6,5.00,000.00,028.8,028.1,000.0,037.1,030.7,034.6,0000.5,0025.59,0008.17,0006.21
2024-06-18 00:24:00,SystemResetWarning,0813.6,4.99,000.00,028.9,028.4,000.0,037.1,030.8,034.5,0000.7,0025.68,0008.15,0006.21
2024-06-18 00:25:00,SystemResetWarning,0813.6,4.99,000.00,029.0,028.6,000.0,037.1,031.0,034.6,0001.3,0024.68,0008.09,0006.22
2024-06-18 00:26:00,SystemResetWarning,0813.6,5.00,000.00,029.2,028.8,000.0,037.2,031.1,034.7,0000.8,0024.05,0008.05,0006.22
2024-06-18 00:27:00,SystemResetWarning,0813.6,4.99,000.00,029.2,028.1,000.0,037.2,030.8,034.5,0000.0,0023.26,0008.06,0006.23
2024-06-18 00:28:00,SystemResetWarning,0813.5,5.01,000.00,028.9,026.1,000.0,037.3,029.7,034.9,0000.6,0025.15,0008.09,0006.26
2024-06-18 00:29:00,SystemResetWarning,0813.5,5.01,000.00,028.6,025.5,000.0,037.3,029.4,035.5,0000.3,0025.51,0008.05,0006.28
2024-06-18 00:30:00,SystemResetWarning,0813.5,5.02,000.00,028.5,025.9,000.0,037.2,029.6,036.1,0000.0,0025.56,0007.99,0006.29
2024-06-18 00:31:00,SystemResetWarning,0813.5,4.99,000.00,028.5,026.4,000.0,037.1,029.9,035.8,0000.0,0025.93,0008.05,0006.33
2024-06-18 00:32:00,SystemResetWarning,0813.5,5.00,000.00,028.6,026.9,000.0,037.1,030.1,035.5,0000.0,0027.11,0008.17,0006.36
2024-06-18 00:33:00,SystemResetWarning,0813.5,5.00,000.00,028.6,027.3,000.0,037.0,030.4,035.6,0000.0,0029.22,0008.22,0006.37
2024-06-18 00:34:00,SystemResetWarning,0813.6,5.00,000.00,028.7,027.7,000.0,037.1,030.5,035.5,0000.0,0028.97,0008.29,0006.40
2024-06-18 00:35:00,SystemResetWarning,0813.6,5.00,000.00,028.8,028.1,000.0,037.1,030.7,035.7,0000.0,0028.84,0008.34,0006.41
2024-06-18 00:36:00,SystemResetWarning,0813.6,5.00,000.00,028.9,028.4,000.0,037.1,030.8,035.1,0000.0,0029.27,0008.36,0006.43
2024-06-18 00:37:00,SystemResetWarning,0813.6,5.00,000.00,029.0,028.6,000.0,037.1,031.0,034.5,0000.0,0030.21,0008.32,0006.44
2024-06-18 00:38:00,SystemResetWarning,0813.6,5.00,000.00,029.1,028.8,000.0,037.2,031.1,034.2,0002.7,0031.86,0008.34,0006.44
2024-06-18 00:39:00,SystemResetWarning,0813.5,4.99,000.00,029.1,027.6,000.0,037.3,030.5,034.3,0003.4,0031.89,0008.32,0006.43
2024-06-18 00:40:00,SystemResetWarning,0813.4,5.01,000.00,028.7,025.8,000.0,037.3,029.5,035.3,0000.3,0032.00,0008.36,0006.44
2024-06-18 00:41:00,SystemResetWarning,0813.5,5.01,000.00,028.5,025.6,000.0,037.3,029.4,037.1,0000.0,0031.36,0008.46,0006.45
2024-06-18 00:42:00,SystemResetWarning,0813.5,5.00,000.00,028.4,026.0,000.0,037.1,029.6,036.5,0000.0,0033.22,0008.48,0006.44
2024-06-18 00:43:00,SystemResetWarning,0813.5,4.99,000.00,028.5,026.5,000.0,037.1,029.9,036.1,0000.0,0031.84,0008.46,0006.43
2024-06-18 00:44:00,SystemResetWarning,0813.5,5.00,000.00,028.5,027.0,000.0,037.0,030.2,036.3,0000.0,0031.25,0008.47,0006.42
2024-06-18 00:45:00,SystemResetWarning,0813.5,5.01,000.00,028.6,027.4,000.0,037.0,030.4,035.8,0000.0,0030.95,0008.44,0006.41
2024-06-18 00:46:00,SystemResetWarning,0813.5,5.00,000.00,028.7,027.8,000.0,037.0,030.6,035.7,0001.9,0032.96,0008.40,0006.42
2024-06-18 00:47:00,SystemResetWarning,0813.5,5.00,000.00,028.8,028.1,000.0,037.0,030.7,035.4,0002.9,0034.53,0008.38,0006.41
2024-06-18 00:48:00,SystemResetWarning,0813.5,5.00,000.00,028.9,028.4,000.0,037.1,030.9,035.2,0001.8,0034.47,0008.39,0006.42
2024-06-18 00:49:00,SystemResetWarning,0813.5,5.00,000.00,029.0,028.6,000.0,037.1,031.0,034.9,0000.0,0033.06,0008.40,0006.42
2024-06-18 00:50:00,SystemResetWarning,0813.5,5.00,000.00,029.1,028.8,000.0,037.2,031.1,034.7,0000.0,0031.91,0008.43,0006.42
2024-06-18 00:51:00,SystemResetWarning,0813.5,4.99,000.00,029.2,028.1,000.0,037.2,030.7,034.4,0000.0,0031.48,0008.48,0006.41
2024-06-18 00:52:00,SystemResetWarning,0813.4,5.00,000.00,028.8,026.2,000.0,037.3,029.8,035.0,0000.0,0032.22,0008.42,0006.41
2024-06-18 00:53:00,SystemResetWarning,0813.4,5.02,000.00,028.6,025.6,000.0,037.3,029.5,035.8,0000.0,0030.85,0008.42,0006.41
2024-06-18 00:54:00,SystemResetWarning,0813.4,5.00,000.00,028.5,025.9,000.0,037.2,029.6,036.3,0002.1,0030.71,0008.43,0006.41
2024-06-18 00:55:00,SystemResetWarning,0813.4,5.00,000.00,028.5,026.4,000.0,037.1,029.9,036.9,0002.7,0029.47,0008.41,0006.42
2024-06-18 00:56:00,SystemResetWarning,0813.4,5.00,000.00,028.6,026.9,000.0,037.1,030.2,036.6,0002.8,0030.12,0008.39,0006.42
2024-06-18 00:57:00,SystemResetWarning,0813.5,4.99,000.00,028.6,027.3,000.0,037.0,030.4,035.9,0002.9,0030.77,0008.40,0006.42
2024-06-18 00:58:00,SystemResetWarning,0813.5,4.99,000.00,028.7,027.7,000.0,037.0,030.6,036.1,0002.5,0030.02,0008.43,0006.43
2024-06-18 00:59:00,SystemResetWarning,0813.5,5.00,000.00,028.8,028.0,000.0,037.0,030.7,035.7,0002.1,0030.89,0008.46,0006.42
